Theta_e
307 307 308 308 309 309 309 309 309 309 310 311 311 312 313 314 315 315 316 317 319 319 320 319 318 318 316 313 312 311 309 308 308 308 309 309 304 303 304 301 303 310 315 316 318 321 323 325 324 323 326 325 324 324 321 325 331 332 336 340 339 340 341 342 343 339 339 338 336 334 330 329 329 327 325 322 329 330 330 337 337 334 332 331 331 328 328 331
308 308 308 308 309 309 309 309 309 309 310 311 311 312 312 313 315 315 315 315 317 319 320 320 319 318 317 316 315 313 310 309 309 308 309 309 308 308 306 304 304 306 310 313 319 323 325 327 324 325 330 328 325 323 322 323 326 336 340 336 334 341 342 339 343 340 334 334 334 334 329 328 328 326 326 325 331 332 330 333 334 338 337 333 329 328 329 331
307 308 308 308 308 308 309 309 309 309 309 310 311 311 312 313 314 315 315 315 316 317 318 319 320 318 318 318 316 314 312 310 309 309 312 315 316 315 313 312 310 307 308 312 319 322 324 325 322 326 330 329 331 326 325 325 325 335 337 336 338 340 339 335 338 339 334 332 334 334 330 330 330 327 326 330 334 331 334 336 334 341 348 343 332 327 329 330
307 307 308 308 308 308 308 309 309 309 309 311 311 310 311 312 313 314 315 315 315 316 317 319 320 319 319 318 316 315 311 309 308 312 317 319 318 319 318 317 316 313 311 311 317 322 323 322 321 327 328 329 335 327 327 329 325 330 332 337 343 336 335 337 337 338 335 330 335 338 331 330 330 328 329 332 334 333 338 341 338 342 352 349 334 327 328 329
306 307 307 307 307 308 308 309 309 309 310 310 310 310 310 311 312 314 315 315 314 315 316 318 319 319 320 319 317 313 309 308 310 316 319 319 317 318 319 318 318 315 310 313 319 321 322 321 322 329 329 330 333 327 331 332 325 330 331 336 345 334 329 337 339 336 332 329 335 337 329 329 329 329 334 334 334 342 342 337 339 343 349 349 336 329 327 327
305 306 306 307 307 307 307 308 308 308 309 309 310 310 311 311 311 313 314 314 314 314 315 317 318 319 320 319 317 312 308 308 313 317 318 317 316 316 318 319 321 316 310 314 320 321 322 323 324 330 330 330 331 329 334 329 323 329 331 332 339 334 329 334 337 332 329 329 331 331 325 328 331 331 334 333 334 344 341 332 334 334 337 338 332 329 330 330
305 305 306 306 307 307 307 307 307 308 308 308 309 310 310 311 311 312 313 314 314 314 315 316 317 319 319 318 316 313 311 311 312 316 317 316 316 317 317 318 322 318 312 314 320 322 324 324 326 329 329 330 330 331 332 327 324 327 330 332 331 331 332 332 332 330 330 330 329 328 324 326 331 330 329 331 335 341 334 327 328 325 325 330 332 333 332 331
304 305 305 305 306 306 306 306 307 307 308 308 308 309 310 310 311 311 312 313 314 314 315 316 317 318 318 317 316 315 314 313 313 315 314 312 314 318 318 317 319 318 312 314 319 321 322 323 326 326 329 332 329 329 328 326 328 327 330 334 329 328 334 331 328 330 330 331 329 326 326 329 330 327 327 332 336 339 331 330 335 331 330 333 335 336 332 331
304 304 305 305 305 306 306 306 307 307 307 308 308 308 309 310 310 311 311 312 313 314 314 315 316 317 318 316 315 317 316 314 315 316 314 312 313 314 316 316 316 317 314 315 317 318 321 323 326 325 326 330 327 328 328 327 332 331 331 335 330 328 330 327 326 329 330 329 328 325 330 335 330 324 327 331 332 333 328 336 348 343 343 342 338 335 332 333
304 304 304 305 305 305 306 307 307 307 307 307 308 308 309 309 310 310 311 311 312 313 314 315 316 317 318 315 314 318 316 312 313 314 313 313 312 311 314 316 314 317 317 316 316 316 319 321 322 320 322 326 324 325 327 328 329 328 329 329 328 328 327 325 325 328 327 326 328 326 330 335 328 323 326 330 331 329 325 333 343 345 351 348 338 334 330 330
303 303 303 304 305 305 305 306 306 307 307 307 307 308 309 309 309 310 310 311 311 312 313 314 315 317 317 314 316 318 313 310 312 312 311 311 311 310 312 314 312 316 318 317 316 315 316 318 318 319 323 324 323 325 326 325 324 324 326 326 329 330 327 325 325 327 324 325 330 326 327 330 326 325 326 329 333 331 329 332 337 343 351 348 340 333 329 328
302 303 303 303 304 305 305 306 306 306 307 307 307 308 308 309 309 309 310 310 311 312 312 313 315 316 317 316 317 317 313 313 313 311 312 312 313 312 311 312 312 313 317 318 317 316 315 317 319 322 323 321 322 323 322 322 321 324 324 326 333 330 327 328 326 328 324 324 331 326 324 327 325 327 326 329 334 332 332 335 335 338 342 345 340 334 331 328
302 302 303 303 304 304 304 305 306 306 306 307 307 307 308 308 309 309 310 310 310 311 312 312 314 315 317 317 317 316 315 315 314 312 312 313 315 315 314 313 312 312 316 318 318 316 315 317 320 322 321 322 325 319 319 322 322 324 325 325 329 328 330 329 325 327 324 325 331 326 324 326 326 327 325 327 332 329 330 331 331 333 332 333 333 331 332 329
302 302 303 303 303 304 304 304 305 306 306 306 306 307 308 308 309 309 309 309 310 310 311 312 313 314 315 317 316 316 317 316 315 314 313 314 315 317 316 313 312 314 318 320 318 316 316 317 319 321 321 323 325 319 323 328 326 326 325 324 325 326 334 331 324 327 325 325 329 326 325 325 325 329 326 327 329 328 329 329 329 331 329 327 327 327 328 326
301 302 302 302 302 303 304 304 304 305 306 306 306 307 307 308 309 309 309 309 309 310 311 311 312 313 314 316 315 315 316 316 316 316 315 315 315 316 316 314 315 318 320 319 319 318 316 318 321 324 324 322 323 325 328 329 330 329 324 325 326 325 331 330 326 327 325 324 325 325 329 328 325 326 327 326 328 328 329 330 328 329 329 328 326 325 324 322
300 301 301 302 302 302 303 303 303 304 305 306 306 306 306 307 308 308 309 309 309 310 310 310 311 313 314 315 315 314 315 316 315 316 317 316 315 314 315 317 320 322 321 318 320 321 319 321 323 324 324 323 325 330 329 326 329 329 323 326 330 327 326 325 325 327 326 323 322 323 329 332 329 329 328 322 325 330 329 330 328 327 327 326 326 324 323 322
300 300 300 301 302 302 302 303 303 303 304 306 305 306 306 307 307 308 308 308 309 310 309 311 311 311 313 313 314 314 314 314 315 315 316 317 315 314 314 317 320 322 322 320 322 323 322 323 323 321 324 325 325 328 327 324 327 327 324 325 328 328 325 325 325 323 323 323 323 324 324 326 327 329 328 321 323 329 328 328 327 324 323 321 321 322 322 322
300 300 300 301 301 302 302 302 303 303 304 305 305 306 306 306 307 307 308 308 309 309 308 310 310 311 314 312 313 315 314 313 314 315 316 316 315 315 314 315 319 321 323 323 322 323 323 323 322 322 324 324 324 325 322 320 323 326 326 325 324 324 324 326 323 317 321 323 322 325 324 324 324 322 323 321 322 323 323 324 322 321 320 320 319 320 320 320
300 300 300 301 301 302 302 302 303 303 303 303 304 305 305 306 306 307 307 307 308 308 308 309 309 311 314 311 311 313 313 313 314 314 314 315 314 314 314 316 320 322 324 323 322 323 324 323 322 322 322 323 324 324 320 319 320 322 324 323 322 323 323 324 323 320 319 322 324 324 323 323 323 320 320 320 320 320 322 322 321 321 319 319 319 318 318 319
300 300 300 301 301 301 302 302 302 303 303 303 304 304 304 305 305 306 306 306 307 308 309 310 309 310 311 310 311 312 312 313 314 313 313 314 314 313 314 318 321 322 322 322 323 323 321 321 322 320 320 320 322 323 321 321 319 319 322 323 323 324 322 321 322 322 319 321 327 325 322 322 321 320 319 317 318 319 321 321 320 319 318 318 318 318 318 318
300 301 300 300 301 301 302 302 302 303 303 304 304 303 304 305 305 306 307 307 307 307 308 309 309 309 309 310 312 311 312 313 313 313 312 313 313 314 316 319 321 321 321 321 323 323 321 320 319 318 319 320 321 322 323 323 321 319 320 322 323 322 321 320 320 322 320 320 324 323 321 321 320 319 318 316 317 316 317 317 317 316 316 316 317 318 318 318
300 300 300 300 300 301 301 301 302 302 302 303 303 302 303 304 305 305 306 307 307 306 307 307 308 308 308 309 311 311 312 313 314 313 312 312 314 316 318 319 319 319 320 321 322 323 322 320 317 318 320 321 323 323 323 324 323 321 320 320 321 320 319 320 319 320 318 319 324 324 320 319 318 317 317 316 315 315 315 315 316 316 316 316 317 317 318 318
300 300 300 301 301 300 300 301 302 302 302 302 302 302 303 304 304 304 304 305 306 306 306 307 307 308 308 308 309 311 313 313 314 314 312 312 314 316 319 320 319 318 320 322 320 320 321 319 318 319 320 321 323 323 323 323 323 322 321 319 320 319 317 318 319 318 318 319 322 323 319 317 316 316 315 315 315 314 315 315 315 316 316 316 317 317 317 319
300 300 300 300 300 300 301 301 301 302 301 301 302 302 303 304 304 304 304 305 306 307 306 306 307 307 307 307 308 311 312 313 314 314 312 313 315 317 318 319 319 318 319 321 319 318 319 319 319 319 319 319 321 322 322 323 324 322 322 320 319 319 317 317 318 318 321 321 318 319 318 315 315 317 315 314 315 314 314 316 316 315 316 316 317 318 318 318
300 300 300 300 300 300 301 300 300 301 301 301 302 302 302 303 303 303 304 305 306 306 306 306 307 307 307 308 309 310 312 312 313 313 312 313 315 317 318 318 320 320 318 320 320 319 318 319 319 318 318 319 319 321 321 322 323 321 321 321 319 319 319 319 319 318 321 321 316 317 316 313 314 317 316 313 314 314 314 316 316 315 315 316 317 317 317 318
300 300 300 300 300 300 300 299 299 300 301 301 301 302 301 302 303 302 304 305 306 306 306 307 307 308 307 308 309 309 310 311 312 312 312 313 314 315 318 319 319 319 318 318 319 319 318 319 321 319 319 319 319 319 319 320 321 321 321 321 319 319 318 319 320 318 320 320 317 316 315 314 315 316 321 322 318 317 317 317 317 316 315 316 316 316 317 317
300 299 300 300 301 301 300 299 300 300 301 301 301 301 301 303 303 302 303 305 306 308 308 307 307 307 308 309 309 308 310 312 311 312 312 313 313 314 316 319 319 318 317 317 319 319 318 319 321 320 319 320 319 319 319 319 320 321 321 322 321 319 318 319 320 320 321 321 319 318 319 319 318 318 322 324 323 323 323 320 318 316 314 315 315 315 316 317
300 300 300 300 300 301 300 300 300 300 301 301 301 301 301 303 303 302 304 304 306 309 308 307 307 306 308 309 308 308 310 312 312 312 312 312 314 314 314 317 318 318 317 317 320 319 317 318 320 320 320 321 319 318 319 318 319 321 321 323 321 318 318 318 319 320 320 321 319 319 320 320 320 320 319 318 318 320 322 322 322 320 316 314 315 315 315 315
300 300 300 300 300 301 300 300 300 300 301 301 301 302 302 303 303 303 305 304 307 310 307 307 308 307 309 310 309 308 308 311 313 313 312 312 313 313 314 314 315 318 317 317 318 317 316 317 318 319 320 320 319 319 319 318 319 320 319 321 320 318 318 318 320 320 320 321 319 318 320 319 318 319 319 318 318 318 318 320 321 321 319 315 315 315 314 315
300 300 300 300 301 300 300 299 300 300 300 300 301 302 302 302 303 304 305 304 306 309 307 307 309 308 309 311 310 309 308 310 313 312 313 314 313 312 313 313 313 316 317 317 318 316 315 315 316 318 320 319 319 320 319 319 319 319 319 322 322 319 319 319 320 321 321 321 318 318 321 320 318 318 317 319 322 322 319 318 318 318 319 317 315 316 315 316
299 300 300 301 301 300 299 299 299 299 300 300 300 302 302 302 303 304 304 304 305 308 306 306 308 309 310 311 311 310 308 310 312 312 313 315 314 313 313 314 313 313 315 316 318 316 314 315 317 318 318 319 320 319 318 319 320 320 322 324 322 320 321 321 321 322 322 320 318 320 321 320 319 318 318 321 322 320 317 316 317 317 318 318 317 318 317 317
299 300 300 300 301 300 300 299 299 299 299 300 301 302 302 302 303 303 303 304 304 306 306 305 308 309 309 310 310 310 309 309 310 312 314 314 314 314 314 315 315 315 315 315 318 317 315 314 315 315 315 318 320 319 318 319 319 320 323 324 321 320 322 322 322 324 322 320 320 321 321 321 319 316 318 323 321 320 319 317 317 317 318 319 318 318 317 318
300 300 300 300 301 300 300 300 299 299 299 300 301 301 302 302 302 302 303 303 303 304 306 306 308 309 309 309 309 309 309 309 310 312 312 312 314 315 314 314 314 316 316 316 317 319 317 314 313 314 315 317 318 318 319 319 319 320 321 322 320 321 323 320 320 323 322 320 321 321 320 321 321 317 317 317 316 318 319 317 317 317 317 318 319 319 319 322
300 300 300 300 300 300 300 300 300 299 300 300 300 301 302 301 302 302 303 302 303 305 307 307 308 309 309 309 309 309 309 309 310 311 311 312 313 315 315 314 314 314 315 316 317 318 319 317 314 314 315 316 316 316 318 319 320 319 319 320 319 319 321 320 319 321 320 319 321 321 320 322 322 318 316 317 320 320 319 317 317 316 317 318 319 320 322 325
301 300 300 300 300 300 300 300 300 300 300 300 300 301 301 300 301 303 303 303 305 308 308 307 307 309 309 308 308 309 309 309 310 310 311 311 312 315 315 314 314 314 314 315 316 317 318 318 315 313 314 316 316 315 315 318 320 319 318 320 320 318 321 322 319 318 318 320 321 320 321 322 319 316 315 319 322 322 319 318 318 317 317 317 318 319 321 324
302 301 301 300 300 301 300 300 300 300 299 299 300 301 301 300 302 303 303 304 305 309 310 308 307 308 309 309 309 309 309 310 311 310 311 311 311 312 313 313 313 313 313 314 316 317 318 318 315 314 315 316 316 315 315 316 319 319 319 320 319 317 320 321 317 315 317 320 320 320 322 321 317 316 316 317 319 319 319 318 319 320 318 317 318 318 319 322
302 302 301 300 300 300 300 300 300 300 299 299 299 300 300 300 302 302 303 304 303 305 308 306 306 308 309 309 309 308 310 310 310 310 310 310 310 310 311 312 313 313 313 313 314 315 317 317 314 313 314 314 314 315 314 315 319 320 320 319 316 316 319 319 317 315 316 318 319 319 320 318 318 318 316 315 317 318 320 320 319 321 321 321 318 316 319 322
303 302 301 301 300 300 300 300 300 299 299 299 300 300 299 300 301 302 303 303 302 303 303 303 305 308 308 309 309 308 309 309 309 310 310 310 311 310 310 311 312 313 313 313 314 314 314 315 314 312 314 313 312 315 315 315 317 318 319 318 317 318 319 319 319 317 316 317 317 318 319 316 317 318 314 315 318 317 317 318 317 318 321 324 320 317 320 321
303 302 301 300 300 300 300 300 300 299 299 299 300 300 300 300 301 303 303 302 302 303 303 303 304 305 306 307 308 308 308 309 309 310 310 310 311 311 310 310 312 313 313 312 314 313 312 314 315 312 312 313 313 314 315 315 314 315 317 318 317 317 317 318 318 317 316 316 314 316 318 316 315 315 314 317 321 321 320 320 318 316 318 324 323 319 319 318
303 302 300 299 299 300 300 299 299 299 300 300 299 300 300 300 300 303 304 302 302 302 302 302 303 303 304 305 306 306 307 309 309 309 310 310 311 311 310 310 311 313 313 312 313 313 311 312 314 312 310 313 314 314 314 316 314 314 316 317 316 317 317 318 318 316 317 316 314 314 314 314 317 316 313 315 317 319 320 321 321 320 320 322 320 318 318 317
301 300 300 299 299 300 300 299 299 300 300 300 299 299 299 300 301 302 302 302 303 302 302 302 303 303 304 304 304 305 306 308 309 309 309 309 310 310 310 310 310 312 313 313 313 312 311 311 314 313 311 312 314 313 312 314 314 314 315 315 316 316 317 318 317 317 317 316 314 315 313 315 322 318 311 312 313 312 314 317 321 323 321 318 316 315 316 315
300 301 301 299 299 300 300 300 300 300 300 300 299 298 298 300 301 302 302 301 302 302 301 302 304 303 303 304 304 304 306 307 308 308 308 309 309 309 310 310 309 311 312 313 312 312 312 312 312 312 312 312 312 313 313 314 314 314 314 314 315 315 315 316 315 315 317 316 314 316 315 315 320 321 314 312 312 310 312 315 319 321 317 316 316 314 314 314
301 302 301 299 299 300 300 301 301 300 300 299 299 298 298 299 300 301 302 301 301 301 301 301 303 304 303 303 303 304 305 306 307 308 308 308 308 308 310 311 310 310 312 312 312 312 313 312 310 310 311 311 310 311 312 313 313 314 314 313 314 315 314 316 317 316 316 317 315 317 317 314 316 322 320 316 313 314 316 317 319 318 315 315 316 314 314 314
299 300 300 300 300 299 300 301 301 300 300 299 299 298 298 298 299 300 301 300 301 301 301 300 302 303 303 304 304 304 304 305 307 308 308 308 309 309 310 311 310 310 311 312 312 312 312 312 311 312 312 311 311 311 311 311 312 313 313 313 313 314 314 317 319 317 315 315 316 316 316 315 316 317 316 316 317 318 320 320 318 315 314 316 316 315 315 313
298 299 299 299 299 299 300 301 300 300 300 299 299 298 298 298 298 299 300 300 300 301 301 301 301 302 303 304 304 304 304 304 305 306 308 308 308 310 310 310 310 310 310 312 312 311 312 312 312 313 313 313 313 313 312 311 311 313 313 313 313 314 314 315 316 315 314 314 315 315 314 314 315 314 314 316 319 320 320 319 315 313 313 313 314 315 314 312
300 301 300 299 299 299 301 301 300 300 300 299 299 298 298 298 298 300 300 300 300 301 301 301 301 302 302 303 304 304 304 304 303 303 306 308 309 309 308 307 308 309 310 312 312 311 312 312 312 312 312 312 312 312 313 312 312 313 314 314 313 313 313 314 314 315 315 314 314 314 314 313 313 313 315 317 320 321 319 316 314 313 312 310 310 313 313 311
300 301 301 300 300 299 300 300 300 299 299 299 299 298 298 297 298 299 300 299 300 301 301 301 301 301 302 303 303 303 304 304 303 302 304 307 308 307 306 305 306 309 309 309 310 311 311 311 312 312 311 311 311 312 313 313 312 312 313 313 313 313 312 313 314 314 314 315 314 314 314 314 313 312 313 315 318 320 318 315 314 313 311 309 310 311 311 309
299 301 301 301 301 301 300 300 299 299 299 299 299 298 298 298 297 298 299 299 300 301 301 301 301 301 302 302 302 302 302 303 304 303 304 306 306 306 307 306 306 308 308 307 307 308 309 310 311 311 311 311 311 311 312 312 311 312 313 313 313 313 313 313 314 314 314 315 315 314 314 314 312 311 311 312 314 317 317 314 311 309 308 309 310 311 311 310
298 300 300 300 301 302 301 300 300 299 298 298 298 298 298 298 298 298 299 299 300 300 300 301 301 301 302 302 301 301 302 302 303 303 303 305 306 306 307 307 307 307 307 307 307 306 307 310 310 310 311 311 311 311 310 310 311 311 312 312 312 313 313 313 313 313 314 314 314 314 315 313 312 312 311 311 313 314 314 311 308 308 308 310 311 312 311 309
299 300 300 300 300 301 301 301 300 299 298 298 298 298 297 297 298 297 298 299 299 299 300 300 300 301 301 301 301 301 301 301 302 302 302 304 305 305 306 308 309 307 305 306 308 306 306 309 310 310 311 311 311 311 310 310 310 310 310 311 312 312 312 313 313 313 313 314 313 314 314 313 312 312 312 312 313 313 312 310 309 308 307 308 311 311 310 308
300 300 299 300 301 300 300 301 300 299 299 299 298 298 298 297 298 297 297 298 299 299 300 300 300 300 300 301 301 301 301 301 302 302 302 303 303 304 305 307 309 308 306 306 307 307 306 308 310 310 311 311 310 311 311 310 310 310 310 310 310 311 311 311 312 312 313 313 313 314 314 313 312 312 312 311 311 311 312 311 310 308 306 306 309 309 309 308
299 298 297 299 301 302 301 301 300 300 300 299 298 299 298 298 298 297 298 298 298 299 299 300 300 300 300 300 301 300 301 301 301 302 302 303 303 304 305 306 307 308 308 307 307 307 307 308 309 309 310 311 310 311 310 310 310 310 310 309 309 310 310 310 310 310 311 312 313 314 313 312 312 312 311 311 311 311 310 309 309 309 306 305 306 308 309 307
Wind_Speed
20 19 18 17 17 17 18 18 18 18 17 17 16 15 15 15 16 16 15 15 15 15 14 13 13 13 13 12 14 15 18 21 23 22 16 18 20 18 18 16 10 8 9 10 8 8 8 7 7 6 5 2 1 0 0 0 2 2 2 2 3 4 4 6 7 7 4 2 3 3 0 5 2 1 0 1 4 3 1 2 2 3 3 3 5 4 10 22
20 20 19 18 18 17 18 18 18 18 17 17 17 16 16 15 15 16 15 15 15 15 15 13 12 12 12 12 13 14 18 22 22 20 18 15 13 12 14 14 12 10 10 9 6 6 4 4 6 6 4 1 1 1 1 0 2 3 3 3 4 6 5 5 7 6 3 2 4 1 1 4 3 3 1 1 1 2 2 2 4 4 5 3 3 5 17 22
20 20 20 20 19 18 18 18 18 18 17 17 17 17 16 15 15 15 16 15 15 15 15 14 13 12 11 11 12 13 17 19 16 12 8 5 5 5 5 8 8 9 11 8 2 5 3 3 5 3 3 1 2 1 1 1 2 3 4 3 6 6 5 4 5 6 4 3 3 1 2 2 2 3 1 2 3 2 4 5 1 3 7 4 1 8 17 19
21 20 20 20 20 20 19 18 18 18 18 17 17 17 17 16 15 15 16 16 15 15 16 15 15 13 10 10 10 11 13 11 7 2 4 6 7 9 6 5 5 7 11 8 3 1 3 4 4 3 2 1 3 2 1 2 2 2 4 5 6 5 4 6 6 6 4 3 3 1 1 1 2 2 1 4 5 1 5 6 6 7 7 6 3 7 13 15
22 21 20 20 20 20 20 19 18 18 18 17 17 17 17 17 16 15 16 16 16 15 15 15 15 14 11 10 8 8 7 4 2 2 4 5 8 11 10 6 6 8 10 8 3 2 1 3 4 4 2 2 1 1 3 3 3 2 3 4 4 5 3 6 5 4 3 2 2 3 3 1 1 0 2 6 6 4 6 6 8 8 7 9 8 9 10 11
23 23 21 21 21 21 21 20 19 18 18 17 17 17 17 17 17 16 16 16 16 16 16 15 15 14 12 10 8 4 0 2 1 5 4 3 6 12 16 9 5 9 10 9 5 4 2 3 3 2 1 1 3 3 4 2 2 3 3 2 4 4 3 3 2 2 3 3 2 1 2 2 3 3 2 6 6 7 5 4 6 6 6 9 10 10 9 10
22 23 22 22 21 21 21 21 20 19 18 18 18 17 17 16 16 17 16 15 16 16 16 15 15 15 14 10 6 3 2 6 9 4 1 4 6 10 15 14 3 7 9 9 6 4 3 4 1 3 3 1 4 5 4 1 2 3 3 2 3 4 4 2 1 1 2 1 2 0 3 2 1 4 1 3 7 8 4 1 1 3 7 9 8 9 10 11
22 22 23 22 22 21 21 22 21 20 19 18 18 17 17 17 16 17 16 15 15 16 16 15 14 14 14 11 6 2 2 12 21 15 10 11 9 10 12 12 7 2 7 7 6 5 3 4 3 3 2 2 3 3 2 0 1 3 5 3 2 4 4 3 1 0 1 3 3 3 4 6 6 1 1 5 9 9 4 2 2 4 7 7 8 9 9 9
22 22 22 23 22 22 22 22 21 21 20 19 19 18 18 17 17 16 16 16 15 16 16 16 15 13 15 10 4 4 6 15 25 23 19 17 14 13 12 9 6 1 4 4 5 6 4 3 4 3 2 3 3 3 2 2 3 4 6 3 1 2 3 2 2 3 3 3 1 0 6 8 5 1 3 8 11 8 3 5 4 5 6 6 8 9 10 9
22 22 22 23 22 21 22 21 20 21 20 20 19 18 18 17 17 17 16 16 15 16 16 16 15 13 15 9 4 7 5 7 16 17 17 17 17 16 12 10 6 2 3 3 5 7 5 4 3 2 2 1 2 2 0 3 4 2 3 2 2 3 4 0 2 2 3 2 4 5 7 8 3 1 4 7 9 7 3 3 3 5 6 8 7 8 10 10
22 22 22 23 22 21 22 21 21 20 20 20 19 19 18 17 18 17 16 16 16 16 16 17 16 14 15 10 6 8 2 2 7 7 8 8 10 12 11 10 6 4 4 3 6 8 5 4 3 2 1 1 2 1 2 2 1 1 2 1 3 4 5 2 3 4 2 2 6 8 7 7 2 2 6 6 5 3 4 5 4 6 6 7 8 8 8 9
23 22 22 22 21 21 21 21 21 20 20 20 19 18 18 18 18 17 17 17 16 16 16 17 16 16 14 9 10 12 8 9 9 6 7 4 3 6 8 8 7 7 6 4 7 9 8 4 4 2 2 1 1 0 1 2 1 1 2 1 6 7 6 4 3 3 3 3 6 6 4 7 5 8 9 7 6 3 4 7 5 6 7 6 7 7 6 10
23 22 22 22 21 20 21 20 20 21 20 20 20 18 18 18 17 17 17 17 17 16 16 16 16 16 13 7 9 16 19 20 14 8 5 2 3 3 5 7 8 7 6 5 6 8 10 6 2 1 1 3 1 2 1 3 2 1 1 1 3 5 6 6 2 2 2 4 7 6 4 6 7 12 10 7 7 5 6 9 7 6 6 7 7 6 7 9
21 22 22 22 21 20 20 20 20 20 20 20 20 19 18 18 17 17 17 16 17 16 15 15 15 14 11 7 7 12 18 21 23 20 11 5 4 3 4 5 5 6 6 5 4 6 10 6 2 1 1 1 1 1 3 5 2 1 1 0 0 1 5 6 2 4 5 5 7 7 6 7 6 10 9 6 5 6 7 9 8 7 7 6 6 6 7 8
21 21 22 23 22 21 20 20 20 21 19 19 20 19 18 17 16 16 16 16 16 15 14 15 15 11 7 8 10 14 17 18 25 28 22 14 6 2 4 3 2 4 4 4 3 5 10 7 2 2 1 1 2 3 3 3 3 2 2 2 1 3 5 7 3 7 9 5 6 8 6 7 8 10 9 4 5 7 8 9 8 7 7 7 6 6 7 8
22 21 21 22 23 22 20 20 21 21 20 19 19 20 19 16 16 15 16 16 15 13 11 11 11 9 7 6 5 10 15 16 20 23 23 22 16 5 4 1 3 3 3 5 3 5 9 5 2 2 1 1 3 3 3 2 3 3 1 2 2 4 3 4 5 6 9 4 2 8 7 4 5 8 7 2 5 7 7 9 8 7 7 7 7 7 7 7
22 22 21 21 22 22 20 19 20 20 19 19 19 19 18 16 15 15 15 15 14 13 12 9 6 7 8 5 3 4 8 11 14 18 20 22 22 14 3 1 4 4 3 3 2 3 4 2 1 0 2 2 2 4 2 2 3 3 0 3 4 4 3 2 4 3 4 4 4 7 7 6 8 9 8 3 5 6 6 8 8 7 7 7 7 7 8 8
22 22 22 21 21 21 20 20 19 19 19 18 19 18 17 15 13 14 14 14 11 10 11 10 6 6 6 5 5 3 3 7 10 14 18 18 19 19 10 2 4 5 4 1 2 2 0 1 2 0 0 1 2 5 5 5 5 5 5 4 3 3 4 4 3 1 2 4 5 6 6 9 14 13 10 7 4 5 6 8 8 8 8 8 8 7 8 8
22 22 21 21 21 20 20 20 19 19 19 18 18 18 15 12 9 10 13 11 7 5 5 6 7 6 2 3 6 5 6 7 8 12 16 15 15 16 11 3 4 5 4 1 2 3 2 2 3 3 5 7 7 9 9 5 6 9 6 3 3 3 5 5 4 3 3 3 5 8 8 9 13 15 13 9 5 5 8 7 7 9 8 9 8 8 9 9
21 21 21 21 21 20 20 19 18 18 18 16 16 14 10 7 4 4 7 8 8 9 6 1 8 10 7 2 4 3 8 9 7 10 17 18 17 15 7 3 4 3 5 4 4 4 4 4 6 8 9 10 12 11 7 3 3 5 3 2 4 4 5 4 2 4 1 1 5 7 8 10 12 15 15 9 5 6 7 8 9 10 9 9 9 10 11 11
21 21 21 21 20 20 20 19 17 17 15 14 13 8 3 4 4 2 2 6 11 15 14 9 10 12 11 5 7 6 3 5 3 6 15 18 19 15 5 4 5 5 6 5 3 3 4 7 12 11 8 7 8 8 5 3 1 3 4 4 4 5 5 4 3 5 2 0 5 4 6 10 11 13 15 10 7 8 9 10 11 12 11 9 9 12 12 10
21 20 21 20 20 20 20 19 18 17 15 13 11 6 4 6 6 2 1 3 8 15 17 16 14 13 12 9 7 5 3 3 4 4 11 14 14 12 6 6 8 7 7 6 4 5 6 11 12 8 6 5 6 7 7 7 4 2 3 3 3 4 3 5 4 4 1 1 4 3 6 10 10 12 13 13 12 10 10 12 13 13 11 9 10 12 11 10
20 20 20 19 19 20 20 19 18 16 14 12 11 9 7 10 9 5 2 1 5 9 11 14 15 13 13 11 8 5 3 4 5 4 12 14 9 9 8 8 10 8 9 10 9 9 8 9 8 7 7 7 6 7 8 6 6 6 3 3 4 2 1 3 4 3 1 3 4 3 6 10 10 10 13 14 16 13 10 12 13 11 11 12 11 10 10 11
20 20 19 19 19 18 19 19 17 15 14 14 16 17 14 13 10 7 4 1 4 5 8 14 14 11 15 15 10 9 6 5 4 5 13 15 7 6 9 10 12 9 9 15 13 10 9 5 6 10 8 9 7 6 9 8 7 7 6 6 5 2 3 4 3 4 3 2 3 2 7 10 8 10 13 12 14 15 10 9 11 11 11 11 9 9 11 11
20 20 19 19 18 18 18 15 13 13 13 13 18 21 20 18 13 7 3 2 5 4 6 10 6 9 18 15 11 9 4 5 7 6 12 15 9 6 7 7 8 10 13 16 12 10 11 5 6 10 9 10 9 6 9 9 6 6 8 10 7 4 4 3 2 4 4 4 2 1 4 8 4 7 11 7 8 11 7 7 11 11 10 9 9 11 11 11
21 20 19 18 17 17 14 8 7 10 10 13 19 18 16 18 16 7 1 3 5 2 6 8 5 10 15 12 11 6 3 7 11 10 12 18 14 5 7 6 4 9 13 11 7 6 7 4 6 9 10 11 10 8 8 8 5 5 6 9 9 7 6 5 1 1 2 5 2 3 2 7 4 3 7 5 6 9 5 5 9 10 10 10 10 11 10 10
21 20 19 18 17 13 7 3 4 6 6 9 14 16 15 15 12 5 1 4 5 4 7 7 7 11 13 14 17 10 4 5 9 10 12 19 15 1 4 9 4 6 8 5 6 4 5 7 6 8 10 9 8 7 7 10 7 5 4 10 11 10 9 6 4 4 3 2 4 2 3 5 8 6 6 6 6 9 8 7 8 8 10 11 11 11 11 11
20 20 20 19 17 15 11 6 3 6 6 6 6 10 15 13 9 5 2 4 3 5 5 7 9 11 11 15 20 13 6 4 7 10 13 21 16 3 3 10 8 9 9 9 9 3 5 11 12 11 9 7 9 9 9 12 7 4 5 9 9 9 9 6 5 5 2 3 7 6 4 3 10 5 1 3 6 8 8 9 9 9 10 10 11 12 12 11
21 20 20 19 17 15 15 13 9 7 9 9 7 8 13 14 9 3 3 5 1 1 1 5 7 8 9 13 15 14 9 3 3 4 9 15 11 3 3 8 8 10 10 12 13 5 3 10 13 13 10 9 11 9 11 14 8 3 6 6 3 4 5 4 5 4 1 2 11 7 7 4 9 4 3 1 4 7 7 8 9 10 10 10 11 12 10 7
22 20 20 18 15 14 13 14 16 14 12 9 7 8 12 10 5 3 7 4 1 3 1 1 2 5 12 13 11 14 12 6 2 2 5 7 6 4 2 1 2 5 6 10 14 8 1 2 7 10 8 8 9 6 9 13 8 4 6 6 6 3 2 2 2 2 1 7 13 7 10 8 7 3 6 4 5 7 7 8 8 8 9 9 9 9 8 6
22 21 20 17 16 16 9 8 15 18 16 11 5 9 11 5 3 6 7 1 2 4 1 1 3 6 14 14 11 13 13 8 5 6 5 4 7 8 3 2 2 1 2 6 11 8 2 3 4 4 2 5 6 3 3 7 7 5 4 4 4 2 2 2 1 3 4 9 7 7 11 9 7 6 4 3 5 6 8 9 9 10 9 8 8 7 8 7
23 22 21 19 20 19 13 11 14 14 16 13 6 7 6 4 5 5 3 3 3 3 2 3 5 7 12 12 10 12 14 10 7 9 8 6 6 7 8 8 6 3 4 4 7 8 5 5 3 2 1 6 8 4 1 4 7 4 4 5 4 2 2 4 4 4 6 7 2 9 10 6 8 14 9 8 8 7 7 8 9 10 9 8 8 8 6 4
25 24 22 21 22 23 19 17 14 10 12 13 7 3 4 5 5 6 5 2 2 3 1 1 2 6 12 11 8 10 10 9 10 11 10 9 7 8 13 13 10 8 5 4 7 7 4 4 5 4 3 7 11 8 4 4 7 7 6 6 6 5 4 6 7 4 4 5 3 7 6 2 8 12 11 14 14 11 9 9 9 8 8 8 7 6 5 3
26 25 24 23 24 24 22 19 15 11 12 12 5 4 7 6 4 6 8 7 4 3 2 0 2 5 12 12 10 11 9 7 12 12 10 10 7 7 12 13 13 9 3 5 7 8 8 6 9 11 5 8 13 11 8 7 7 9 7 6 7 6 5 6 6 4 3 2 3 4 3 5 8 4 4 8 9 7 7 7 8 7 7 7 5 5 5 4
26 25 25 24 24 24 22 21 18 14 13 10 4 5 7 7 4 3 5 6 3 2 2 0 1 4 7 10 9 10 8 7 11 11 10 12 9 6 8 11 15 12 6 6 4 7 12 7 9 15 9 12 15 9 8 9 6 8 7 7 9 6 3 2 3 5 3 0 2 4 3 6 6 5 4 4 3 4 5 5 7 8 8 7 6 6 5 5
26 25 24 23 23 25 24 22 20 18 14 6 4 6 7 7 5 3 3 4 2 1 1 1 0 3 6 5 6 9 7 3 9 10 9 12 12 10 11 10 13 16 11 8 4 4 9 5 10 14 9 12 15 10 10 10 6 5 7 8 6 2 4 1 3 1 3 2 4 5 6 7 6 10 9 6 5 6 5 5 6 8 9 7 7 8 6 4
27 23 21 22 24 26 26 24 22 20 13 5 7 9 7 7 7 5 3 2 2 1 1 2 3 3 4 4 5 10 8 3 7 8 6 9 10 11 14 10 11 17 15 11 6 3 5 5 5 13 13 12 11 11 10 11 9 5 8 8 3 2 2 1 4 1 2 3 4 6 11 9 5 7 5 4 10 10 8 7 5 5 6 6 9 9 5 3
27 19 16 22 27 26 26 27 26 19 8 4 12 15 9 6 8 8 6 4 1 1 1 4 4 2 3 4 3 8 9 6 7 7 6 7 6 9 16 10 8 15 16 14 8 2 2 5 2 9 16 9 7 9 8 10 8 3 6 9 5 2 4 4 5 4 3 5 5 5 10 9 8 8 2 1 9 11 9 9 7 8 8 7 8 7 4 5
23 11 7 17 27 27 28 30 23 12 5 7 12 12 7 6 7 6 6 6 3 2 2 3 3 2 2 2 3 5 9 9 8 7 6 6 4 10 16 11 8 13 16 15 10 3 1 4 4 5 9 8 7 8 8 9 6 1 3 7 3 3 6 5 6 6 5 7 7 5 6 7 8 8 5 5 7 8 8 8 8 11 10 8 6 5 5 6
14 4 1 15 28 30 33 29 14 6 7 9 9 7 4 5 6 4 6 7 4 2 5 6 4 3 3 3 4 3 6 10 10 7 6 7 6 7 12 12 9 10 14 16 13 7 2 4 5 2 3 6 7 8 13 15 10 4 5 6 4 4 2 1 3 5 5 5 5 6 7 7 5 4 8 11 10 10 10 9 9 10 9 7 6 6 6 6
4 1 2 19 33 36 31 18 6 5 7 8 8 8 6 4 4 5 7 7 4 2 2 5 6 4 3 4 5 3 3 7 9 8 5 7 7 5 8 13 12 11 12 12 12 10 4 4 6 3 2 7 8 11 16 15 12 10 9 9 10 9 6 4 6 6 4 4 5 4 8 8 4 4 8 10 11 12 11 10 8 8 8 6 5 5 5 6
3 2 6 26 41 38 23 7 4 6 7 8 7 7 8 6 4 5 5 5 6 3 2 2 4 4 3 4 6 5 4 3 7 9 5 7 10 7 7 13 15 13 11 9 12 11 5 1 4 4 4 8 7 6 5 5 11 13 11 11 12 11 10 9 10 7 4 6 5 1 7 10 5 5 7 8 9 9 9 9 8 7 7 6 5 4 4 5
1 2 10 34 49 37 14 5 6 7 8 8 6 7 8 7 6 5 5 6 5 4 2 3 3 5 5 4 4 5 5 3 5 7 5 6 9 9 6 10 12 11 9 8 9 7 3 2 3 3 1 4 6 5 6 2 7 10 11 11 11 11 12 9 6 5 3 6 7 5 9 12 6 4 6 6 5 4 5 6 7 7 6 6 5 5 5 6
1 1 6 30 50 35 11 7 10 11 10 8 9 11 8 7 8 7 7 7 6 4 5 6 5 6 6 5 4 5 6 5 5 7 6 5 5 4 1 7 11 9 8 8 7 6 5 4 6 6 2 1 4 5 4 2 5 7 9 12 12 12 11 5 2 3 5 9 12 9 10 10 4 2 2 4 5 5 6 7 8 8 7 7 6 5 5 6
1 1 2 12 30 24 10 9 10 10 11 12 13 12 9 8 8 9 8 8 7 5 5 5 5 7 5 4 4 4 5 4 4 5 6 4 3 3 1 7 11 10 10 10 10 8 6 6 8 9 7 6 6 6 6 5 5 4 3 7 11 13 14 8 5 7 8 10 11 10 10 9 5 3 2 2 6 7 7 7 7 6 6 7 6 6 6 7
0 3 1 2 7 8 6 4 5 8 10 11 10 9 13 12 6 7 9 9 8 8 6 5 4 5 5 5 5 5 5 4 3 3 3 3 3 2 1 3 5 9 14 14 12 7 4 7 11 12 12 11 9 7 6 7 6 6 7 10 14 16 17 13 9 10 10 9 12 11 11 14 12 8 5 4 6 8 8 7 6 7 7 6 6 7 8 8
2 2 4 3 2 5 5 3 6 8 7 8 7 6 13 14 6 6 10 9 8 8 6 5 5 7 8 9 8 6 6 5 4 3 4 3 3 3 1 2 2 6 10 10 9 6 3 7 13 15 16 16 14 12 7 10 11 13 14 16 16 15 17 16 13 14 12 11 13 13 13 17 18 15 11 8 8 9 8 8 10 10 9 7 7 8 8 8
1 2 2 2 3 6 8 7 8 8 6 9 8 5 10 15 12 10 8 5 6 8 8 8 11 14 14 13 11 8 7 6 4 5 4 3 3 3 3 3 3 2 2 1 2 2 2 7 13 15 16 18 18 16 11 8 10 14 17 19 18 16 18 19 18 18 16 13 13 14 17 18 17 16 15 11 9 9 9 9 8 6 6 7 7 9 10 10
1 2 2 2 2 4 5 5 7 9 10 10 8 8 11 16 18 14 6 4 7 12 12 12 16 19 18 15 12 9 9 8 7 8 8 7 7 5 3 4 4 4 3 3 2 1 1 5 10 13 15 18 19 17 14 10 8 11 16 19 21 21 21 21 21 21 21 18 14 15 19 19 15 14 14 9 8 9 8 6 5 5 8 9 10 12 12 12
2 3 1 2 3 2 1 3 7 9 9 9 10 12 12 13 17 14 8 8 11 9 11 18 21 17 16 15 13 13 14 13 12 12 11 11 10 7 5 4 3 3 4 5 3 2 2 2 5 7 9 14 16 16 15 14 13 14 15 16 18 19 18 19 19 18 18 19 18 19 20 17 12 11 13 10 6 7 7 7 8 10 12 13 13 14 13 12
7 5 1 2 5 4 4 4 6 7 7 9 12 12 11 15 19 14 8 11 14 10 14 24 24 12 9 12 14 16 16 15 16 16 14 15 13 9 7 6 6 4 3 4 4 4 4 1 3 2 4 9 13 15 16 16 16 18 18 17 15 14 14 15 15 16 17 18 19 21 17 13 12 12 15 15 8 8 10 11 12 12 13 14 15 15 13 12
9 6 1 2 4 5 7 4 5 7 7 8 12 13 14 19 16 10 7 10 17 19 16 16 14 8 7 13 18 22 20 16 16 13 9 9 10 7 6 7 8 8 5 4 3 3 5 3 1 2 3 5 8 10 11 12 12 12 15 17 18 17 16 14 14 17 19 17 15 15 13 14 16 16 17 19 15 11 11 12 12 12 12 13 14 15 14 14
Wind_Direction
301 300 299 298 297 297 297 296 295 293 291 287 285 285 287 290 292 295 297 298 290 280 276 279 289 298 305 311 316 319 319 319 318 314 301 287 288 283 279 282 285 293 301 310 316 307 306 313 318 335 343 337 358 263 305 52 119 86 113 151 203 188 192 191 185 195 173 185 248 311 168 150 176 248 148 43 45 62 77 353 311 297 281 252 289 304 156 158
298 298 297 296 295 294 294 293 294 293 291 288 286 283 283 286 288 290 291 295 296 287 279 275 279 288 296 306 311 317 320 320 317 307 297 301 302 284 271 267 266 266 277 297 339 7 355 324 335 2 26 321 299 332 271 272 150 136 125 175 220 195 207 203 182 193 167 173 214 260 210 168 178 181 101 194 274 41 143 278 337 318 280 296 338 145 153 157
295 295 295 294 293 293 291 291 291 290 290 288 286 285 283 283 284 287 287 288 293 294 288 276 273 278 287 296 303 314 320 322 315 298 306 348 359 341 302 265 259 248 250 263 318 28 20 339 341 20 58 293 283 336 207 198 188 175 132 193 236 207 228 245 195 202 214 209 178 171 196 168 199 189 95 184 170 125 195 228 252 269 256 262 323 150 156 161
294 293 292 292 291 291 289 288 288 288 288 286 286 285 283 283 283 284 285 284 285 291 292 283 274 272 277 282 289 306 319 321 301 261 61 51 30 16 353 283 254 232 231 236 235 353 358 357 7 50 91 263 302 10 200 226 195 169 153 195 228 187 219 247 206 207 230 199 151 64 335 161 214 187 146 155 143 230 242 224 202 217 223 202 204 175 168 168
294 293 292 290 289 289 288 287 285 285 285 286 285 283 282 281 281 282 284 283 281 286 290 288 280 272 269 267 272 306 332 319 275 115 79 51 34 22 5 313 239 224 216 208 189 147 339 4 34 57 80 228 275 40 229 236 133 158 207 194 194 154 198 246 208 204 197 152 81 22 336 255 193 142 162 156 160 225 238 218 206 210 199 177 180 181 178 180
293 293 291 289 289 287 286 285 284 283 282 284 283 283 282 280 278 278 283 283 279 280 285 287 285 274 263 258 255 273 11 260 290 98 100 54 24 15 13 357 235 210 200 190 159 113 94 36 48 111 108 218 208 209 239 274 108 195 253 211 206 177 202 238 181 217 153 95 41 64 291 339 18 319 211 168 196 226 226 211 212 219 193 169 165 168 179 191
293 293 290 288 287 286 285 284 283 282 281 281 281 282 280 281 279 276 278 281 277 274 279 284 285 278 263 246 231 218 145 253 257 207 250 330 336 348 359 3 359 199 191 178 152 116 96 73 95 163 118 197 212 217 236 335 63 188 234 255 218 193 215 216 113 342 55 46 260 71 334 319 290 301 281 192 235 248 251 230 235 205 162 153 156 174 190 197
293 292 290 288 285 285 285 283 282 280 279 279 278 279 278 280 279 276 276 277 278 272 273 278 280 281 261 227 198 231 197 243 253 253 274 284 289 311 325 350 14 210 187 176 166 147 120 111 175 166 125 227 196 200 219 57 17 193 214 241 172 185 230 243 191 188 301 274 291 352 314 260 231 240 290 243 251 260 236 137 85 114 138 152 174 189 199 203
293 292 290 288 284 283 282 281 281 279 277 277 276 276 276 277 276 277 275 273 277 272 271 272 274 279 258 225 170 239 236 250 259 265 274 273 270 282 296 319 346 292 178 189 183 160 161 174 198 174 176 230 181 195 228 183 238 212 194 204 205 265 281 253 219 175 190 239 117 354 279 267 249 197 268 248 243 249 173 124 115 127 149 179 191 195 200 205
293 291 289 288 286 283 281 279 278 278 277 274 273 274 272 274 273 274 274 272 275 270 269 267 270 275 248 214 178 233 248 272 263 263 269 271 265 261 273 292 300 258 186 194 181 167 171 180 186 160 164 217 179 204 214 168 210 202 158 176 214 305 324 284 268 214 181 229 175 181 252 271 279 220 254 249 245 247 172 164 161 156 186 202 207 207 204 208
294 293 290 288 286 282 281 279 276 276 276 272 270 271 270 271 270 270 272 271 272 270 269 264 268 272 241 204 204 227 181 284 268 273 268 277 269 252 259 276 273 227 196 185 195 193 179 168 143 125 161 182 186 245 299 205 203 65 97 322 296 330 319 268 288 265 184 245 196 176 248 276 342 237 229 231 251 225 187 225 202 193 219 216 218 218 209 218
295 293 291 289 286 282 280 281 278 275 276 274 269 268 268 269 268 269 269 269 271 270 268 265 266 269 253 226 227 227 226 254 273 291 270 284 292 253 251 257 256 236 212 195 209 205 193 180 89 93 210 166 159 193 263 259 5 23 107 301 303 343 321 258 269 256 168 218 191 154 277 268 229 235 227 218 245 237 224 249 231 217 229 230 230 226 219 225
296 294 292 289 287 284 281 280 279 275 275 275 271 268 268 267 266 265 266 267 269 268 269 269 268 268 263 250 236 234 241 248 250 257 258 283 307 276 254 248 243 234 229 226 227 207 196 197 109 118 200 121 182 221 83 21 27 244 122 113 306 342 307 261 237 198 185 208 171 149 269 242 222 245 240 220 234 241 248 255 249 239 234 235 237 235 236 233
297 295 293 290 286 285 283 280 279 277 275 275 273 269 267 266 265 262 262 265 267 268 269 270 273 275 265 258 264 258 255 248 242 243 243 256 301 318 281 272 236 217 233 238 236 207 188 189 169 128 318 138 242 293 22 10 14 215 199 148 214 220 274 282 251 172 206 222 154 154 248 246 246 260 252 232 208 203 227 244 245 249 247 244 240 237 245 243
296 295 294 291 286 283 283 280 277 276 275 275 272 269 267 265 265 262 258 259 264 267 268 271 273 274 275 269 264 262 256 243 239 240 239 243 259 338 330 319 211 193 210 206 204 195 181 176 146 119 268 294 45 33 3 349 7 52 192 269 317 199 263 299 277 182 202 233 143 161 242 266 260 255 252 236 177 180 216 239 242 248 256 259 259 248 246 250
295 292 291 291 287 282 281 282 279 275 275 277 275 270 266 264 265 263 259 259 262 266 268 272 263 244 264 278 246 245 240 231 236 238 235 237 235 244 343 5 156 138 173 199 199 176 170 159 122 129 168 71 81 82 37 351 332 357 169 234 259 203 240 298 286 217 209 237 171 201 235 278 276 261 267 246 167 181 218 245 251 250 256 257 260 261 257 258
295 292 290 288 287 283 279 281 282 276 273 276 275 272 266 264 263 260 259 257 257 261 254 257 264 245 253 263 236 238 233 227 233 230 227 232 231 227 239 127 147 131 144 190 196 164 151 126 142 138 67 83 131 110 88 246 256 325 221 226 241 194 176 243 288 276 203 215 228 230 237 255 271 272 280 271 156 164 213 249 260 255 255 251 244 251 257 257
295 294 291 288 286 283 279 277 279 277 272 272 275 276 271 264 262 263 259 250 249 258 252 247 252 256 241 239 241 203 212 231 217 216 219 222 222 217 215 188 137 133 115 96 201 178 159 89 123 350 3 174 158 147 190 214 193 195 199 211 237 211 203 223 261 292 142 198 223 236 246 254 264 267 268 263 196 181 231 252 266 267 263 263 259 251 250 252
295 293 290 289 284 282 281 277 277 277 273 272 275 279 275 267 267 267 253 240 229 221 241 218 201 235 241 233 256 216 210 221 196 202 206 199 196 198 198 176 129 135 140 188 192 178 178 135 127 200 216 201 192 193 197 185 175 191 188 173 189 211 234 231 242 248 148 162 227 234 240 247 259 265 263 261 238 226 252 263 270 272 268 266 267 264 261 257
294 291 288 287 284 283 280 277 275 274 273 273 278 280 268 254 253 260 234 221 225 228 258 222 188 238 261 268 334 282 221 210 193 201 200 191 173 168 180 154 116 145 187 189 178 175 157 173 207 211 207 201 201 202 191 144 137 156 149 193 204 211 251 249 253 289 32 161 243 232 238 247 254 265 266 261 240 229 249 256 256 259 259 260 261 263 262 258
291 289 288 285 284 282 277 276 274 272 272 270 275 272 230 216 214 231 209 215 230 229 245 251 214 237 254 268 354 354 260 218 230 213 198 189 165 160 184 166 154 194 198 171 155 155 143 201 221 212 198 192 188 189 196 213 132 109 160 213 234 218 249 269 249 286 344 274 268 252 254 255 248 259 269 268 250 234 233 241 250 252 251 253 257 260 260 262
289 288 288 286 283 280 275 273 270 270 272 264 260 247 246 261 240 259 341 239 239 220 225 240 237 247 255 263 297 325 335 253 252 229 188 180 171 175 184 169 182 198 178 161 168 178 197 225 224 198 165 138 143 170 196 225 226 204 169 172 248 230 258 292 273 281 347 178 280 287 268 261 251 253 261 264 258 241 221 227 241 246 249 246 244 253 260 267
286 285 286 285 282 279 276 273 270 271 270 260 249 238 255 266 258 278 298 296 267 221 211 226 231 242 243 249 260 249 267 240 242 245 184 176 184 187 173 172 192 189 174 187 196 193 210 231 208 170 148 136 150 176 184 212 227 224 196 173 232 218 175 273 289 313 256 219 262 299 287 269 258 253 254 254 255 250 226 225 238 240 243 245 242 248 254 257
283 283 282 280 279 278 276 275 272 270 265 257 249 244 250 256 260 273 263 273 275 228 206 217 219 230 231 231 218 205 229 221 227 242 188 180 178 177 183 184 188 189 189 198 204 210 228 240 167 161 160 162 169 177 182 203 228 224 216 217 221 182 194 232 296 320 311 296 283 313 302 278 246 236 247 244 246 254 237 221 242 245 241 249 255 255 250 249
280 280 278 278 277 275 277 282 274 264 260 252 249 250 251 251 254 265 261 262 259 218 200 211 213 229 226 216 185 179 220 217 220 223 185 187 183 167 194 191 187 198 196 197 203 225 240 238 157 161 164 175 184 191 191 196 219 236 227 221 209 174 202 238 341 354 336 316 315 89 286 280 242 226 251 256 247 256 243 211 236 246 244 247 252 250 248 251
278 277 276 275 274 273 279 290 269 255 251 245 248 252 253 249 248 256 283 259 257 201 176 177 171 204 205 185 154 148 255 225 214 207 184 195 199 186 201 191 195 206 191 188 201 228 231 191 152 166 172 181 192 205 199 176 187 245 227 199 196 193 204 215 179 93 250 267 283 104 215 271 296 244 247 261 262 265 261 232 239 243 244 240 240 245 246 251
277 275 273 270 269 266 262 279 251 226 228 252 253 248 248 244 232 221 233 260 249 168 163 175 182 185 177 164 151 149 231 198 184 202 191 194 198 171 209 192 183 198 174 166 209 213 175 164 167 178 178 183 197 209 190 162 175 249 197 167 186 201 206 201 180 204 235 283 280 211 150 266 282 263 234 219 240 272 276 265 257 245 244 243 244 247 241 242
274 272 272 267 264 253 240 245 217 196 236 277 273 243 234 218 194 174 215 253 225 152 171 191 176 162 157 159 157 171 222 143 156 202 190 190 191 120 210 212 201 191 168 173 211 206 136 173 181 178 180 190 204 206 174 162 187 234 162 155 181 191 197 195 183 226 278 2 276 245 134 258 271 262 259 194 212 252 265 261 260 247 242 242 243 246 241 241
270 268 269 266 265 257 247 242 221 216 255 261 255 235 209 190 172 155 240 244 262 26 242 191 167 151 148 152 164 192 213 153 153 188 165 181 188 132 228 234 220 207 185 188 213 218 174 195 181 172 189 205 205 198 169 173 199 211 139 113 103 149 170 180 181 215 334 285 258 237 142 228 271 232 163 172 208 230 247 251 252 245 240 235 237 246 246 246
270 265 264 263 264 258 248 241 234 237 249 253 247 208 177 172 174 220 233 227 287 263 258 125 215 172 157 152 170 197 201 188 146 112 147 161 160 173 240 251 203 219 200 205 221 220 156 197 174 175 197 198 189 180 174 181 176 114 102 75 55 63 85 102 143 136 122 251 251 213 157 197 272 242 173 200 212 197 211 237 247 247 243 237 238 246 249 245
267 264 260 254 250 244 229 232 243 240 239 249 237 178 168 174 205 220 230 267 307 247 128 16 259 174 160 163 173 187 195 200 167 159 175 155 164 184 202 154 132 224 212 210 222 217 139 138 185 214 202 140 139 146 168 176 158 115 109 114 86 41 62 99 142 155 196 249 243 170 168 186 238 249 189 224 251 209 208 223 230 238 244 245 244 242 241 234
266 262 256 248 245 239 222 230 248 242 230 228 203 169 182 219 219 226 264 353 310 255 149 204 220 176 170 176 178 179 187 195 178 174 181 180 188 186 193 199 173 185 228 197 206 214 190 178 206 297 187 144 140 146 133 166 172 155 136 139 138 177 191 188 209 196 215 258 221 164 172 172 237 253 245 244 256 239 225 226 226 232 237 244 247 249 253 241
264 261 254 247 242 237 230 231 242 238 212 196 180 192 224 231 214 211 229 241 252 274 298 222 233 186 173 175 187 182 184 189 176 180 187 186 198 198 204 209 190 197 226 185 196 210 193 198 196 189 197 171 161 166 182 176 178 181 170 163 167 174 195 211 216 215 227 253 223 176 164 168 251 261 252 239 239 229 221 225 229 234 237 244 255 265 280 277
260 257 252 246 241 240 234 224 225 218 181 163 164 232 233 246 235 195 213 231 243 301 334 345 291 227 184 182 194 176 176 201 181 180 191 190 199 202 205 212 203 205 215 184 202 203 206 219 187 183 185 169 179 187 179 159 170 190 185 184 194 189 200 213 205 210 233 255 212 185 172 202 217 244 243 237 249 248 238 233 233 244 252 257 277 286 284 286
258 253 250 244 238 237 228 216 218 205 165 151 194 229 226 246 249 192 219 239 241 297 299 291 329 266 210 197 202 184 184 201 182 182 195 197 205 197 196 208 203 202 198 198 210 202 219 234 175 183 179 161 182 195 161 148 172 199 186 192 215 206 176 197 192 184 185 312 200 197 229 225 228 298 283 246 302 296 275 259 233 241 251 256 271 270 262 278
261 254 248 237 228 226 218 211 209 189 160 153 222 224 227 232 216 193 233 239 203 176 280 327 97 253 238 206 201 203 201 171 174 193 204 203 211 205 202 207 198 199 202 204 213 191 220 236 160 172 181 174 183 179 165 168 166 183 195 198 214 164 114 163 255 147 107 223 215 190 236 256 276 293 276 244 270 287 283 262 222 233 250 253 255 251 247 268
257 247 235 226 221 219 213 207 194 175 161 179 221 224 226 215 203 200 202 214 226 161 172 256 225 227 241 220 193 192 186 151 180 198 201 201 213 208 207 213 196 199 206 210 224 202 215 246 163 166 189 198 181 163 179 192 168 166 203 187 138 61 98 158 243 304 78 242 240 198 223 237 235 264 278 230 241 249 256 258 249 255 256 244 246 246 230 206
255 236 226 223 216 211 205 197 182 167 161 207 227 233 231 215 210 200 184 186 242 24 46 245 233 227 235 228 218 188 181 185 191 192 192 198 211 197 199 212 202 199 206 210 226 287 219 246 247 186 192 184 134 151 194 212 193 186 189 165 134 199 208 182 210 231 202 231 263 218 218 227 216 226 262 226 232 232 241 257 266 262 245 234 247 241 187 145
253 236 234 216 207 202 193 184 174 165 185 214 227 233 224 224 224 204 192 192 171 122 185 230 228 253 264 228 240 201 188 197 194 190 196 195 209 196 191 197 198 196 200 202 214 256 227 221 248 216 190 160 141 170 199 210 210 10 146 166 175 224 207 197 212 230 216 224 250 236 212 225 225 216 196 216 232 219 224 239 241 242 239 235 235 205 162 144
240 227 222 186 189 188 178 172 168 174 204 216 228 227 206 221 224 213 207 198 179 175 206 213 204 226 259 241 253 242 208 212 202 199 205 188 202 212 191 187 186 186 192 198 208 219 213 218 226 229 152 165 177 193 199 198 191 178 173 180 202 219 212 250 234 231 215 212 238 247 243 243 238 205 191 206 221 212 209 215 218 228 231 225 209 178 161 152
180 247 207 169 173 173 164 164 185 192 209 227 229 229 225 217 203 209 209 200 211 268 236 216 204 205 238 238 244 233 217 231 212 205 217 195 202 224 193 186 184 179 185 195 207 208 199 211 210 192 166 192 200 206 210 203 180 178 189 186 191 200 203 223 228 219 201 206 212 231 258 259 241 208 200 203 216 219 216 210 209 221 218 202 190 178 165 156
139 265 177 165 168 164 157 179 206 182 220 227 216 224 221 217 210 197 189 193 209 234 308 251 200 190 207 232 248 224 189 245 229 210 216 211 213 224 199 187 187 180 178 193 208 201 173 144 210 209 203 210 217 223 235 204 174 184 202 198 194 199 200 211 221 209 194 224 226 235 270 263 235 187 200 208 215 222 220 209 202 211 205 181 177 191 180 164
222 220 158 168 169 162 158 206 192 201 227 210 208 223 211 220 226 188 175 191 191 180 199 225 199 205 208 197 234 233 196 211 233 222 231 227 225 234 207 182 185 179 175 197 208 192 148 111 218 244 276 256 269 302 343 20 168 193 212 206 201 205 207 211 212 203 203 214 213 227 253 256 248 199 202 197 190 195 202 204 204 203 190 176 188 199 183 169
231 182 149 174 171 163 168 206 197 215 216 195 214 219 207 225 227 206 196 193 180 163 191 212 209 215 218 180 177 223 219 217 221 221 228 224 236 276 243 184 193 181 180 196 186 175 184 189 208 226 238 255 259 269 294 277 191 200 214 213 211 206 205 207 160 200 225 211 207 222 242 251 273 289 229 146 144 175 197 201 201 196 183 183 194 195 182 174
189 161 28 183 174 168 186 204 201 213 204 200 216 216 213 230 222 208 203 196 193 178 186 217 203 194 207 178 168 207 227 238 235 222 221 217 245 325 358 214 213 199 202 200 175 172 194 194 204 219 216 204 209 216 221 210 202 208 209 214 217 210 204 202 201 219 228 220 217 226 242 252 272 315 288 172 161 190 216 214 206 204 198 192 190 183 180 181
288 179 126 192 189 197 212 193 198 211 200 200 210 208 212 223 223 199 200 206 205 189 197 236 198 177 195 191 198 217 214 219 243 260 262 233 234 249 173 218 230 223 222 207 177 165 188 206 213 221 225 227 230 227 190 155 178 205 202 206 212 212 208 206 212 221 221 228 232 226 233 250 252 238 230 217 193 203 218 211 204 214 210 198 195 191 187 188
321 212 173 155 200 242 244 232 214 214 195 186 191 195 207 216 229 207 202 204 193 183 214 241 198 192 206 200 210 226 201 195 214 237 257 255 264 283 246 172 214 252 253 229 192 172 169 215 221 223 229 233 238 241 201 160 184 203 208 215 215 210 211 213 219 221 215 224 237 228 223 239 248 240 224 217 212 211 211 205 206 207 198 191 193 191 192 196
262 244 225 192 186 213 225 223 209 205 183 174 183 190 202 210 217 214 203 183 172 182 204 222 208 207 209 202 208 221 202 195 207 201 211 243 260 280 281 237 209 221 319 311 208 191 211 229 224 222 231 234 235 238 223 189 195 201 206 216 216 210 211 215 222 223 220 226 236 234 230 234 244 247 239 224 206 206 212 210 204 192 179 185 189 188 195 199
266 265 285 267 229 210 209 195 180 194 197 186 195 211 205 209 216 215 186 143 198 203 200 218 220 210 208 204 201 214 207 196 209 207 200 215 221 216 241 261 238 195 152 134 153 172 220 243 233 224 231 237 236 235 229 218 215 215 215 216 215 212 210 213 220 223 225 233 238 241 244 242 241 250 255 240 196 198 210 190 158 165 180 190 195 196 200 200
230 234 243 245 259 249 184 171 165 188 203 194 210 222 213 216 221 214 185 184 212 202 190 221 229 211 208 211 205 218 218 204 211 211 194 204 216 209 213 225 210 178 150 143 164 181 163 262 260 231 229 239 238 235 230 222 221 226 227 224 222 221 215 215 220 222 226 235 238 241 248 250 247 254 262 253 198 174 185 173 175 196 195 193 198 200 200 200
257 248 188 204 235 204 189 195 168 188 208 201 214 220 212 225 225 210 201 212 218 204 194 217 227 213 208 222 219 229 229 215 218 217 197 200 210 203 205 208 184 166 153 152 158 164 174 249 319 248 233 244 237 234 233 228 227 230 229 227 227 228 223 218 218 219 222 225 230 236 243 248 248 248 254 253 224 177 183 189 195 206 201 193 198 201 199 199
283 259 194 215 241 199 192 196 173 197 211 205 217 217 214 228 221 188 203 226 220 220 214 214 219 206 215 227 221 225 228 222 228 232 208 209 223 215 211 210 188 170 159 162 158 151 176 197 243 225 246 263 248 240 236 229 229 232 226 221 221 222 222 219 218 221 222 221 224 230 233 238 243 244 247 251 242 214 199 197 200 208 207 200 200 201 198 200